Hibbing, MN

3:58 PM CST on February 25, 2018 (GMT -0600)
Chisholm-hibbing

Weather History for KHIB - April, 2013

Change the Weather History Date:

Wednesday, April 3, 2013

  Actual Average Record
Temperature  
Mean Temperature 23 °F -  
Max Temperature 43 °F 42 °F 66 °F (1991)
Min Temperature 3 °F 21 °F 2 °F (1967)
Degree Days  
Heating Degree Days 42    
Moisture  
Dew Point 11 °F    
Average Humidity 53    
Maximum Humidity 80    
Minimum Humidity 31    
Precipitation  
Precipitation 0.00 in - - ()
Sea Level Pressure  
Sea Level Pressure 30.24 in    
Wind  
Wind Speed 4 mph (South)    
Max Wind Speed 17 mph    
Max Gust Speed 28 mph    
Visibility 10 miles    
Events      
Averages and records for this station are not official NWS values.
T = Trace of Precipitation, MM = Missing Value Source: NWS Daily Summary

Daily Weather History Graph

Daily Weather History Graph

Search for Another Location

Airport or City:

Trip Planner

Search our weather history database for the weather conditions in past years. The results will help you decide how hot, cold, wet, or windy it might be!

Date:

Astronomy

Apr. 03, 2013 Rise Set
Actual Time 6:45 AM CDT 7:44 PM CDT
Civil Twilight 6:14 AM CDT 8:15 PM CDT
Nautical Twilight 5:37 AM CDT 8:53 PM CDT
Astronomical Twilight 4:57 AM CDT 9:32 PM CDT
Moon 2:53 AM CDT (4/3) 12:31 PM CDT (4/3)
Length of Visible Light 14h 01m
Length of Day
12h 58m
Last Quarter, 44% of the Moon is Illuminated
Apr 3
Last Quarter
Apr 10
New
Apr 18
First Quarter
Apr 25
Full
May 2
Last Quarter

Hourly Weather History & Observations

Time (CDT) Temp. Windchill Dew Point Humidity Pressure Visibility Wind Dir Wind Speed Gust Speed Precip Events Conditions
12:53 AM 12.0 °F - 3.0 °F 67% 30.40 in 10.0 mi Calm Calm - N/A   Clear
1:53 AM 9.0 °F - 1.9 °F 73% 30.40 in 10.0 mi Calm Calm - N/A   Clear
2:53 AM 9.0 °F - 1.9 °F 73% 30.39 in 10.0 mi Calm Calm - N/A   Clear
3:53 AM 6.1 °F - 1.0 °F 80% 30.40 in 10.0 mi Calm Calm - N/A   Clear
4:53 AM 6.1 °F - 1.0 °F 80% 30.40 in 10.0 mi Calm Calm - N/A   Clear
5:53 AM 5.0 °F - -0.9 °F 76% 30.40 in 10.0 mi Calm Calm - N/A   Clear
6:53 AM 3.9 °F - -0.9 °F 80% 30.41 in 10.0 mi Calm Calm - N/A   Clear
7:53 AM 10.0 °F - 3.0 °F 73% 30.40 in 10.0 mi Calm Calm - N/A   Clear
8:53 AM 21.0 °F 14.6 °F 7.0 °F 55% 30.38 in 10.0 mi SSE 4.6 mph - N/A   Clear
9:53 AM 28.9 °F 21.1 °F 6.1 °F 38% 30.37 in 10.0 mi South 8.1 mph 18.4 mph N/A   Clear
10:53 AM 33.1 °F 24.4 °F 7.0 °F 34% 30.35 in 10.0 mi South 11.5 mph 20.7 mph N/A   Clear
11:53 AM 36.0 °F 27.5 °F 8.1 °F 31% 30.32 in 10.0 mi South 12.7 mph 20.7 mph N/A   Clear
12:53 PM 37.0 °F 29.8 °F 9.0 °F 31% 30.28 in 10.0 mi SSE 10.4 mph 19.6 mph N/A   Mostly Cloudy
1:53 PM 39.0 °F 31.4 °F 10.9 °F 32% 30.22 in 10.0 mi South 12.7 mph 19.6 mph N/A   Partly Cloudy
2:53 PM 39.9 °F 32.9 °F 12.0 °F 32% 30.19 in 10.0 mi South 11.5 mph 19.6 mph N/A   Partly Cloudy
3:53 PM 42.1 °F 36.1 °F 15.1 °F 34% 30.16 in 10.0 mi South 10.4 mph 23.0 mph N/A   Clear
4:53 PM 42.1 °F 34.5 °F 17.1 °F 37% 30.12 in 10.0 mi South 15.0 mph 21.9 mph N/A   Clear
5:53 PM 43.0 °F 35.7 °F 19.0 °F 38% 30.09 in 10.0 mi South 15.0 mph 27.6 mph N/A   Clear
6:53 PM 41.0 °F 32.5 °F 19.0 °F 41% 30.06 in 10.0 mi SSW 17.3 mph 25.3 mph N/A   Overcast
7:53 PM 39.9 °F 35.8 °F 19.9 °F 45% 30.04 in 10.0 mi South 5.8 mph 16.1 mph N/A   Mostly Cloudy
8:53 PM 39.0 °F 34.8 °F 21.9 °F 50% 30.01 in 10.0 mi SSW 5.8 mph - N/A   Mostly Cloudy
9:53 PM 39.0 °F 34.0 °F 24.1 °F 55% 30.00 in 10.0 mi South 6.9 mph - N/A   Scattered Clouds
10:53 PM 37.0 °F - 25.0 °F 62% 29.99 in 10.0 mi Calm Calm - N/A   Overcast
11:53 PM 39.0 °F - 28.0 °F 65% 29.97 in 10.0 mi Calm Calm - N/A   Overcast